map of GEO home
GEO - Airport
Location
City:  Georgetown, Demerara-Mahaica, Guyana
Name:Cheddi Jagan International Airport
Old (Alt.):Timehri International Airport
ICAO:SYCJ
IATA:GEO

Details
Type:Airport (Aerodrome, Airfield)
Use:Public/Civil, International (customs port of entry)
Latitude:629'55"N (6.498553)
Longitude:5815'15"W (-58.254118)
Datum:WGS 1984
Elevation:95 ft (29 m)
Variation:16.45W (WMM2015 magnetic declination)
-0.06 annual change
Runways:2
Longest:7448 × 148 ft (2270 × 45 m), paved

Time
Time Zone:UTC-4
Local Time:

Weather
METAR:SYCJ 240800Z 00000KT 9999 SCT016 22/22 Q1013 NOSIG
TAF:SYCJ 240400Z 2406/2506 06004KT CAVOK
BECMG 2412/2415 08014KT 030V110 9999 SCT021
BECMG 2422/2500 06008KT CAVOK

Related Locations
Nearby:
Farthest:KSR: 12356 mi / 19884 km
Selayar Islands [H. Aroeppala Airport], SN, ID

Find:

   beyond  
but within

Other Information
Maps:
NOTAMs:
Links:
Sources:

  
  • flag of Guyana
  

Sectional Chart

Flight Planning
at skyvector.com

Satellite Image

Google Maps Satellite view

 

Copyright © 2004-2019 Karl L. Swartz. All rights reserved.
The Great Circle Mapper name and logo are trademarks of the Great Circle Mapper.
All other trademarks mentioned herein belong to their respective owners.
Please see credits for attibutions and further copyright information.

  Follow gcmap on Facebook Follow gcmap on Twitter Follow gcmap on Google+ GCmap on LinkedIn

hCard Microformat

Geo Microformat